map of TBN home
Great Circle Mapper logo
TBN - Airport
Location
City:  Fort Leonard Wood, Missouri, United States
Name:Waynesville-St. Robert Regional Forney Field
ICAO / IATA:KTBN / TBN
FAA:TBN

Details
Type:Airport (Airfield)
Use:Public/Civil, Military
Latitude:3744'30"N (37.741631)
Longitude:9208'27"W (-92.140735)
Datum:WGS 1984
Elevation:1159 ft (353 m)
Variation:0.3E (WMM2015 magnetic declination)
Runways:1
Longest:6038 × 150 ft (1840 × 45.5 m), paved

Time
Time Zone:UTC-6 (DST-5)
Local Time:

Weather
METAR:KTBN 202058Z AUTO 19004KT 10SM OVC015 05/03 A3017 RMK AO2 SLP226 T00490027 $

Related Locations
Nearby:
Farthest:MGV: 10897 mi / 17537 km
Margaret River, WA, AU

Find:

   beyond  
but within

Other Information
Maps:
NOTAMs:
Links:
Sources:

  
flag of United States
flag of Missouri
  

Airport Diagram

Airport diagram for TBN

Airport diagram PDF

Sectional Chart

Flight Planning
at skyvector.com

Satellite Image

Google Maps Satellite View

 

Copyright © 2004-2014 Karl L. Swartz. All rights reserved.
The Great Circle Mapper name and logo are trademarks of the Great Circle Mapper.
All other trademarks mentioned herein belong to their respective owners.
Please see credits for attibutions and further copyright information.

  Follow gcmap on Facebook Follow gcmap on Twitter

hCard Microformat

Geo Microformat